Location: Newark
(48.0167°N, 2.6667°E)
Time: 14:36:27
(UTC+00:00)

ISS - Visible Passes

Search period start: 29 September 2020 00:00
Search period end: 09 October 2020 00:00
Orbit: 419 x 421 km, 51.6° (Epoch: 30 September)

Date Brightness Start Highest point End Pass type
(mag) Time Alt. Az. Time Alt. Az. Time Alt. Az.
29 Sep -3.4 19:02:21 10° WNW 19:05:41 55° NNE 19:06:38 39° ENE visible
29 Sep -0.4 20:39:16 10° WNW 20:39:36 12° WNW 20:39:36 12° WNW visible
30 Sep -3.1 18:15:04 10° WNW 18:18:21 47° N 18:21:11 13° E visible
30 Sep -2.2 19:51:56 10° WNW 19:54:09 36° W 19:54:09 36° W visible
01 Oct -3.8 19:04:40 10° WNW 19:08:03 87° SSW 19:08:44 54° ESE visible
02 Oct -3.7 18:17:23 10° WNW 18:20:46 71° NNE 18:23:21 16° ESE visible
02 Oct -1.5 19:54:28 10° W 19:56:20 23° WSW 19:56:20 23° WSW visible
03 Oct -2.8 19:07:02 10° WNW 19:10:14 41° SSW 19:11:00 34° S visible
04 Oct -3.4 18:19:39 10° WNW 18:23:00 61° SSW 18:25:45 14° SE visible
04 Oct -0.8 19:57:58 10° WSW 19:58:44 11° SW 19:58:44 11° SW visible
05 Oct -1.4 19:09:47 10° W 19:12:10 18° SW 19:13:35 14° S visible
06 Oct -1.9 18:22:06 10° W 18:25:01 27° SW 18:27:54 10° SSE visible
08 Oct -0.7 18:25:34 10° WSW 18:26:47 12° SW 18:27:59 10° SSW visible
